Regional Weather Roundup
Issued by NWS Little Rock, AR

Home | Current Version | Previous Version | Graphics & Text | Print | Product List | Glossary On
Versions: 1 2 3 4 5 6 7 8 9 10 11 12 13 14 15 16 17 18 19 20 21 22 23 24 25 26
000
ASUS44 KLZK 280705
RWRLZK

WEATHER ROUNDUP FOR ARKANSAS
NATIONAL WEATHER SERVICE LITTLE ROCK AR
200 AM CDT THU APR 28 2016

NOTE: "FAIR" INDICATES FEW OR NO CLOUDS BELOW 12,000 FEET WITH NO
SIGNIFICANT WEATHER AND/OR OBSTRUCTIONS TO VISIBILITY.

ARZ001-003-010-029-280800-
NORTHWEST ARKANSAS

CITY           SKY/WX    TMP DP  RH WIND       PRES   REMARKS
FAYETTEVILLE   CLEAR     50  50 100 CALM      29.82R
FORT SMITH     CLEAR     58  53  84 CALM      29.80S
HARRISON       CLEAR     55  49  80 CALM      29.81R
BENTONVILLE    CLEAR    N/A N/A N/A CALM      29.83R
ROGERS         CLEAR     52  50  93 W3        29.83R
SILOAM SPGS    CLEAR     50  41  71 N6        29.84R
HIGHFILL       CLEAR     56  49  77 NW9       29.82
$$

ARZ004-005-016-280800-
NORTH CENTRAL ARKANSAS

CITY           SKY/WX    TMP DP  RH WIND       PRES   REMARKS
BATESVILLE     PTCLDY    63  55  77 NW5       29.79R
FLIPPIN        CLEAR    N/A N/A N/A CALM      29.76S
MTN HOME       CLEAR     57  51  80 CALM      29.78R
$$

ARZ040-041-280800-
WEST CENTRAL ARKANSAS

CITY           SKY/WX    TMP DP  RH WIND       PRES   REMARKS
MENA           CLEAR     55  54  94 CALM      29.82S
MOUNT IDA      CLEAR     57  54  89 CALM      29.79R
$$

ARZ009-017-025-026-028-280800-
NORTHEAST ARKANSAS

CITY           SKY/WX    TMP DP  RH WIND       PRES   REMARKS
CORNING          N/A     66  66 100 W6        29.76R
JONESBORO      MOCLDY    69  65  86 W9        29.75R
NEWPORT        PTCLDY    65  65 100 W3        29.77R
WALNUT RIDGE   CLEAR     66  61  82 W5        29.76R
BLYTHEVILLE    PTCLDY    69  65  86 SW8       29.74S
$$

ARZ022-023-033-042-044-280800-
CENTRAL ARKANSAS

CITY           SKY/WX    TMP DP  RH WIND       PRES   REMARKS
LITTLE ROCK    CLEAR     64  58  80 W5        29.78R
N LITTLE ROCK    N/A     67  56  67 W3        29.76R
JACKSONVILLE   CLEAR     61  56  83 W7        29.77R
SEARCY         CLEAR     60  59  96 CALM      29.78R
HOT SPRINGS    CLEAR     61  58  90 W3        29.81R
RUSSELLVILLE   CLEAR     62  56  80 CALM      29.79R
$$

ARZ036-280800-
EAST ARKANSAS

CITY           SKY/WX    TMP DP  RH WIND       PRES   REMARKS
WEST MEMPHIS   PTCLDY    69  67  93 S6        29.75S
$$

ARZ050-053-066-070-073-280800-
SOUTHWEST ARKANSAS

CITY           SKY/WX    TMP DP  RH WIND       PRES   REMARKS
ARKADELPHIA    FAIR      59  59 100 CALM      29.80R
CAMDEN         FOG       59  57  94 CALM      29.79R VSB 3/4
TEXARKANA      CLEAR     64  53  67 CALM      29.80R
EL DORADO      CLEAR     62  61  96 CALM      29.80R
DE QUEEN       FOG       54  54 100 CALM      29.79S VSB 3/4
$$

ARZ056-057-069-280800-
SOUTHEAST ARKANSAS

CITY           SKY/WX    TMP DP  RH WIND       PRES   REMARKS
PINE BLUFF     CLEAR     65  63  93 CALM      29.78R
STUTTGART      CLEAR     66  61  82 S8        29.77S
MONTICELLO     CLEAR     67  64  90 W5        29.78S

$$






USA.gov is the U.S. government's official web portal to all federal, state and local government web resources and services.